Location: Asbacherhof
(48.8543°N, 10.7903°E)
Time: 23:57:57
(UTC+00:00)

USA 307 - Pass Details

Date: 26 May 2022
Orbit: 552 x 554 km, 54.0° (Epoch: 17 June)

Event Time Altitude Azimuth Distance (km) Brightness Sun altitude
Exits shadow 00:12:06 41° 157° (SSE) 810 3.3 -18.9°
Maximum altitude 00:12:28 42° 141° (SE) 796 3.3 -18.8°
Drops below altitude 10° 00:16:26 10° 70° (ENE) 1,844 5.9 -18.7°
Sets 00:18:45 0° 64° (ENE) 2,743 7.0 -18.6°
